Location: Bremen
(53.0793°N, 8.8017°E)
Time: 18:14:38
(UTC+02:00)

Tiros 1 - Pass Details

Date: 25 April 2024
Orbit: 624 x 657 km, 48.4° (Epoch: 17 May)

Event Time Altitude Azimuth Distance (km) Brightness Sun altitude
Rises 02:24:34 0° 258° (WSW) 2,932 - -22.3°
Reaches altitude 10° 02:26:57 10° 253° (WSW) 2,018 - -22.2°
Maximum altitude 02:31:24 48° 180° (S) 828 - -22.0°
Exits shadow 02:33:04 32° 128° (SE) 1,073 8.1 -21.9°
Drops below altitude 10° 02:35:50 10° 106° (ESE) 2,002 9.7 -21.8°
Sets 02:38:11 0° 101° (E) 2,905 10.6 -21.7°
